COSMOS 2485 (747)

Last updated on Tue Sep 16 2025 00:03:19 GMT+0000 (Coordinated Universal Time)

1 39155U 13019A 25257.45548572 .00000032 00000+0 00000+0 0 9991 2 39155 65.2651 82.8684 0022460 226.8169 133.0464 2.13104449 96402
UTC large
Height (km)
Speed (km/s)
/
Latitude / Longitude
Inclination (degrees)
Orbital Period (minutes)
Azimuth
Elevation
Range (km)
Doppler Factor

Next 0 passes for location: London (51.5072 / 0.1276)

Sorry there are no passes over London.